User: anonymous   Login
Location: Unspecified
(0.0000°N, 0.0000°E)
Time: 05:26:32
(UTC+00:00)
Language:

USA 148 - Orbit

View from above orbital plane
View from above orbital plane
View from above satellite
View from above satellite

Ground track
Ground track

The orbit data is extracted from the following two-line orbital elements,

1 26052U 00001A   17169.90457122 0.00000000  00000-0  00000-0 0    03
2 26052   6.7414  53.1182 0001318  12.0569 347.9812  1.00270000    09
Epoch (UTC): 18 June 2017 21:42:34
Eccentricity: 0.0001318
inclination: 6.7414°
perigee height: 35781 km
apogee height: 35792 km
right ascension of ascending node: 53.1182°
argument of perigee: 12.0569°
revolutions per day: 1.00270000
mean anomaly at epoch: 347.9812°
orbit number at epoch: 0

The dashed part of the orbit path shows where the satellite is in the earth's shadow,  

DLR